Weather History for Safford, AZ

Change the Weather History Date:

Wednesday, April 17, 2013

  Actual Average Record
Temperature  
Mean Temperature 58 °F -  
Max Temperature 66 °F 79 °F 95 °F (1962)
Min Temperature 50 °F 44 °F 30 °F (1976)
Degree Days  
Heating Degree Days 6    
Growing Degree Days 8 (Base 50)    
Moisture  
Dew Point 20 °F    
Average Humidity 23    
Maximum Humidity 34    
Minimum Humidity 13    
Precipitation  
Precipitation 0.00 in - - ()
Sea Level Pressure  
Sea Level Pressure 29.76 in    
Wind  
Wind Speed 18 mph (WNW)    
Max Wind Speed 32 mph    
Max Gust Speed 43 mph    
Visibility 10 miles    
Events      
Averages and records for this station are not official NWS values.
T = Trace of Precipitation, MM = Missing Value Source: NWS Daily Summary

Daily Weather History Graph

Daily Weather History Graph

Search for Another Location

Airport:

Trip Planner

Search our weather history database for the weather conditions in past years. The results will help you decide how hot, cold, wet, or windy it might be!

Date:

Astronomy

Apr. 17, 2013 Rise Set
Actual Time 5:46 AM MST 6:50 PM MST
Civil Twilight 5:20 AM MST 7:15 PM MST
Nautical Twilight 4:50 AM MST 7:46 PM MST
Astronomical Twilight 4:19 AM MST 8:17 PM MST
Moon 11:09 AM MST (4/17) 12:23 AM MST (4/17)
Length of Visible Light 13h 55m
Length of Day
13h 04m
Waxing Crescent, 43% of the Moon is Illuminated
Apr 17
Waxing Crescent
Apr 18
First Quarter
Apr 25
Full
May 2
Last Quarter
May 9
New

Hourly Weather History & Observations

Time (MST) Temp. Dew Point Humidity Pressure Visibility Wind Dir Wind Speed Gust Speed Precip Events Conditions
12:51 AM 63.0 °F 24.1 °F 23% 29.66 in 10.0 mi NW 19.6 mph 25.3 mph N/A   Clear
1:51 AM 61.0 °F 27.0 °F 27% 29.65 in 10.0 mi NNW 12.7 mph 19.6 mph N/A   Clear
2:51 AM 57.0 °F 28.0 °F 33% 29.64 in 10.0 mi West 5.8 mph - N/A   Clear
3:51 AM 55.9 °F 27.0 °F 33% 29.64 in 10.0 mi West 8.1 mph - N/A   Clear
4:51 AM 55.0 °F 26.1 °F 33% 29.65 in 10.0 mi NW 9.2 mph - N/A   Clear
5:51 AM 55.9 °F 28.0 °F 34% 29.67 in 10.0 mi NW 16.1 mph - N/A   Clear
6:51 AM 57.9 °F 28.9 °F 33% 29.69 in 10.0 mi NNW 21.9 mph 26.5 mph N/A   Clear
7:51 AM 60.1 °F 30.0 °F 32% 29.71 in 10.0 mi NW 21.9 mph - N/A   Clear
8:51 AM 62.1 °F 33.1 °F 34% 29.71 in 10.0 mi NW 19.6 mph 28.8 mph N/A   Partly Cloudy
9:51 AM 64.0 °F 33.1 °F 31% 29.72 in 10.0 mi WNW 26.5 mph 33.4 mph N/A   Scattered Clouds
10:51 AM 64.9 °F 33.1 °F 31% 29.72 in 10.0 mi WNW 27.6 mph 34.5 mph N/A   Partly Cloudy
11:51 AM 66.0 °F 30.0 °F 26% 29.73 in 10.0 mi WNW 29.9 mph 41.4 mph N/A   Partly Cloudy
12:51 PM 66.9 °F 21.0 °F 17% 29.73 in 10.0 mi WNW 32.2 mph 42.6 mph N/A   Partly Cloudy
1:51 PM 64.9 °F 18.0 °F 16% 29.76 in 10.0 mi WNW 27.6 mph 39.1 mph N/A   Clear
2:51 PM 66.0 °F 16.0 °F 15% 29.77 in 10.0 mi West 27.6 mph 36.8 mph N/A   Partly Cloudy
3:51 PM 64.0 °F 14.0 °F 14% 29.78 in 10.0 mi West 27.6 mph 35.7 mph N/A   Scattered Clouds
4:51 PM 64.0 °F 10.9 °F 13% 29.79 in 10.0 mi WNW 26.5 mph 34.5 mph N/A   Clear
5:51 PM 62.1 °F 10.0 °F 13% 29.81 in 10.0 mi West 18.4 mph 29.9 mph N/A   Clear
6:51 PM 59.0 °F 10.9 °F 15% 29.84 in 10.0 mi WNW 18.4 mph 24.2 mph N/A   Partly Cloudy
7:51 PM 55.9 °F 10.9 °F 17% 29.86 in 10.0 mi West 9.2 mph - N/A   Clear
8:51 PM 55.0 °F 9.0 °F 16% 29.89 in 10.0 mi West 9.2 mph - N/A   Clear
9:51 PM 51.1 °F 8.1 °F 18% 29.91 in 10.0 mi NNW 9.2 mph - N/A   Clear
10:51 PM 52.0 °F 6.1 °F 16% 29.91 in 10.0 mi NNW 12.7 mph - N/A   Clear
11:51 PM 50.0 °F 8.1 °F 18% 29.92 in 10.0 mi WNW 5.8 mph - N/A   Clear